EW7144 Weather Reports


time (UTC)temp
F
wind
direction
speed
knots
gust
knots
rain 1hr
in
rain 24hr
in
rain mn
in
humidity
%
barometer
mb
20260905053406 56 254 9.6 25.2 0.00 0.00 0.00 81 1011.1
20260905052906 56 330 11.3 25.2 0.00 0.00 0.00 80 1011.2
20260905052406 56 345 12.2 28.7 0.00 0.00 0.00 80 1011.3
20260905051407 56 340 11.3 22.6 0.00 0.00 0.00 81 1011.4
20260905050907 56 337 12.2 22.6 0.00 0.00 0.00 81 1011.7
20260905050406 56 340 12.2 21.7 0.00 0.00 0.00 82 1011.6
20260905045906 57 348 9.6 22.6 0.00 0.00 0.00 83 1011.7
20260905045407 57 326 12.2 19.1 0.00 0.00 0.00 82 1011.9
20260905044906 57 334 10.4 22.6 0.00 0.00 0.00 82 1012.0
20260905043406 57 323 10.4 22.6 0.00 0.00 0.00 82 1012.1
20260905042906 57 347 11.3 17.4 0.00 0.00 0.00 82 1012.1
20260905042407 57 346 11.3 21.7 0.00 0.00 0.00 82 1012.1
20260905041907 57 335 7.8 19.1 0.00 0.00 0.00 82 1012.1
20260905041407 57 351 11.3 24.3 0.00 0.00 0.00 82 1012.1
20260905035906 57 340 10.4 26.1 0.00 0.00 0.00 81 1012.3
20260905035407 57 334 10.4 22.6 0.00 0.00 0.00 82 1012.3
20260905034907 57 344 10.4 20.0 0.00 0.00 0.00 80 1012.4
20260905034406 57 348 13.9 20.9 0.00 0.00 0.00 79 1012.4
20260905033406 58 346 12.2 30.4 0.00 0.00 0.00 80 1012.7
20260905032906 58 329 7.8 20.9 0.00 0.00 0.00 80 1012.9
20260905032406 58 342 7.8 19.1 0.00 0.00 0.00 80 1012.9
20260905031907 57 336 6.1 17.4 0.00 0.00 0.00 80 1012.9
20260905031406 57 352 7.8 15.6 0.00 0.00 0.00 80 1012.9
20260905030906 58 337 10.4 19.1 0.00 0.00 0.00 79 1012.9
20260905030406 58 323 11.3 19.1 0.00 0.00 0.00 78 1012.9
20260905025906 58 325 7.8 19.1 0.00 0.00 0.00 79 1012.9
20260905025406 58 325 10.4 17.4 0.00 0.00 0.00 78 1013.0
20260905024907 58 308 8.7 18.2 0.00 0.00 0.00 78 1012.9
20260905023907 58 326 10.4 22.6 0.00 0.00 0.00 79 1013.2
20260905023406 58 311 9.6 19.1 0.00 0.00 0.00 79 1013.2
20260905022906 58 325 8.7 20.0 0.00 0.00 0.00 80 1013.3
20260905022406 57 332 7.8 17.4 0.00 0.00 0.00 81 1013.3
20260905021906 57 303 6.1 19.1 0.00 0.00 0.00 82 1013.3
20260905021406 56 319 9.6 20.9 0.00 0.00 0.00 81 1013.3
20260905020906 56 313 9.6 17.4 0.00 0.00 0.00 82 1013.3
20260905020406 56 334 7.8 17.4 0.00 0.00 0.00 83 1013.4
20260905015906 55 338 6.1 15.6 0.00 0.00 0.00 83 1013.4
20260905015406 56 344 7.0 20.0 0.00 0.00 0.00 84 1013.5
20260905014906 56 311 6.1 15.6 0.00 0.00 0.00 85 1013.6
20260905014406 55 324 7.8 18.2 0.00 0.00 0.00 85 1013.8
20260905013406 55 297 7.0 20.9 0.00 0.00 0.00 83 1014.0
20260905012906 55 341 8.7 22.6 0.00 0.00 0.00 83 1014.2
20260905011406 55 329 5.2 22.6 0.00 0.00 0.00 84 1014.2
20260905010907 55 292 8.7 17.4 0.00 0.00 0.00 86 1014.3
20260905010407 55 319 4.3 13.9 0.00 0.00 0.00 86 1014.4
20260905005906 55 314 1.7 8.7 0.00 0.00 0.00 87 1014.5
20260905005406 54 301 2.6 10.4 0.00 0.00 0.00 87 1014.6
20260905004906 54 322 5.2 13.9 0.00 0.00 0.00 87 1014.7
20260905004407 54 267 5.2 13.9 0.00 0.00 0.00 87 1014.8
20260905003907 54 314 4.3 12.2 0.00 0.00 0.00 87 1014.9
20260905003407 54 256 5.2 13.0 0.00 0.00 0.00 87 1015.0
20260905002907 54 251 5.2 13.9 0.00 0.00 0.00 87 1015.1
20260905002406 54 310 4.3 14.8 0.00 0.00 0.00 87 1015.4
20260905001906 54 242 7.0 17.4 0.00 0.00 0.00 87 1015.4
20260905001406 54 325 6.1 18.2 0.00 0.00 0.00 86 1015.5
20260905000907 54 346 10.4 19.1 0.00 0.00 0.00 85 1015.4
20260905000407 55 296 4.3 10.4 0.00 0.00 0.00 85 1015.3
20260904235407 55 346 7.0 13.9 0.00 0.00 0.00 84 1015.5
20260904234906 55 345 7.0 13.0 0.00 0.00 0.00 84 1015.5
20260904234406 55 349 7.8 13.9 0.00 0.00 0.00 85 1015.4
20260904233906 55 343 5.2 12.2 0.00 0.00 0.00 86 1015.4
20260904233406 55 343 5.2 13.0 0.00 0.00 0.00 86 1015.5
20260904232906 55 341 6.1 12.2 0.00 0.00 0.00 87 1015.6
20260904232406 54 324 5.2 11.3 0.00 0.00 0.00 87 1015.6
20260904231906 53 303 6.1 13.0 0.00 0.00 0.00 87 1015.8
20260904231406 53 347 5.2 11.3 0.00 0.00 0.00 87 1015.9
20260904230906 53 315 3.5 13.9 0.00 0.00 0.00 87 1015.8
20260904230406 53 341 2.6 10.4 0.00 0.00 0.00 87 1015.9
20260904225906 52 321 4.3 11.3 0.00 0.00 0.00 87 1015.9
20260904225406 52 269 4.3 13.0 0.00 0.00 0.00 87 1015.9
20260904224906 52 211 4.3 11.3 0.00 0.00 0.00 86 1016.0
20260904224407 53 237 5.2 13.0 0.00 0.00 0.00 86 1016.1
20260904223907 53 245 2.6 7.8 0.00 0.00 0.00 85 1016.1
20260904222906 54 234 4.3 12.2 0.00 0.00 0.00 83 1016.0
20260904221906 56 346 7.0 13.9 0.00 0.00 0.00 78 1015.8
20260904221407 57 346 5.2 14.8 0.00 0.00 0.00 78 1015.7
20260904220906 57 315 5.2 12.2 0.00 0.00 0.00 79 1015.6
20260904220406 57 328 5.2 13.9 0.00 0.00 0.00 80 1015.7
20260904215906 57 353 7.0 13.0 0.00 0.00 0.00 80 1015.6
20260904215407 57 325 6.1 13.0 0.00 0.00 0.00 79 1015.7
20260904214406 56 343 7.0 12.2 0.00 0.00 0.00 79 1015.7
20260904213906 56 330 4.3 10.4 0.00 0.00 0.00 80 1015.6
20260904213406 55 321 4.3 13.0 0.00 0.00 0.00 80 1015.7
20260904212406 55 315 2.6 8.7 0.00 0.00 0.00 83 1015.7
20260904211907 54 258 2.6 8.7 0.00 0.00 0.00 83 1015.8
20260904211406 54 313 3.5 10.4 0.00 0.00 0.00 84 1015.9
20260904210906 53 237 0.9 4.3 0.00 0.00 0.00 84 1015.9
20260904210406 53 221 1.7 6.1 0.00 0.00 0.00 84 1015.9
20260904205906 53 209 1.7 5.2 0.00 0.00 0.00 83 1016.0
20260904205406 53 209 1.7 6.1 0.00 0.00 0.00 82 1016.0
20260904204906 53 279 2.6 8.7 0.00 0.00 0.00 82 1016.0
20260904204405 54 201 1.7 7.8 0.00 0.00 0.00 81 1015.9
20260904203906 54 151 2.6 6.1 0.00 0.00 0.00 81 1015.9
20260904202906 53 204 2.6 6.1 0.00 0.00 0.00 81 1015.9
20260904202406 53 217 1.7 5.2 0.00 0.00 0.00 81 1015.9
20260904201406 53 228 0.9 5.2 0.00 0.00 0.00 81 1015.9
20260904200906 53 278 1.7 5.2 0.00 0.00 0.00 81 1015.8
20260904200406 52 253 1.7 4.3 0.00 0.00 0.00 81 1015.8
20260904195906 52 227 1.7 2.6 0.00 0.00 0.00 81 1015.7
20260904195406 52 231 0.9 2.6 0.00 0.00 0.00 81 1015.7
20260904194405 52 299 0.9 4.3 0.00 0.00 0.00 81 1015.5
20260904193906 52 270 0.9 2.6 0.00 0.00 0.00 81 1015.4
20260904193406 52 274 1.7 6.1 0.00 0.00 0.00 81 1015.4
20260904192906 51 343 2.6 5.2 0.00 0.00 0.00 81 1015.3
20260904191906 51 353 1.7 6.1 0.00 0.00 0.00 81 1015.3
20260904191406 51 327 2.6 4.3 0.00 0.00 0.00 81 1015.0
20260904190906 51 320 2.6 5.2 0.00 0.00 0.00 81 1014.9
20260904190406 50 249 1.7 4.3 0.00 0.00 0.00 81 1014.9
20260904185905 50 241 0.9 2.6 0.00 0.00 0.00 81 1014.9
20260904185406 50 332 1.7 4.3 0.00 0.00 0.00 81 1014.9
20260904184906 50 234 0.9 6.1 0.00 0.00 0.00 80 1014.9
20260904184406 50 254 2.6 7.0 0.00 0.00 0.00 80 1014.9
20260904183907 50 243 1.7 4.3 0.00 0.00 0.00 80 1014.8
20260904183406 50 207 1.7 4.3 0.00 0.00 0.00 80 1014.8
20260904182906 50 207 1.7 4.3 0.00 0.00 0.00 79 1014.7
20260904182406 50 276 0.9 2.6 0.00 0.00 0.00 79 1014.8
20260904181905 50 218 1.7 4.3 0.00 0.00 0.00 79 1014.8
20260904180906 51 243 1.7 2.6 0.00 0.00 0.00 79 1014.7
20260904180406 51 228 2.6 7.8 0.00 0.00 0.00 79 1014.8
20260904175406 51 324 1.7 4.3 0.00 0.00 0.00 78 1014.8
20260904174906 51 218 1.7 5.2 0.00 0.00 0.00 78 1014.8
20260904174406 51 239 1.7 5.2 0.00 0.00 0.00 78 1014.7
20260904173906 51 214 1.7 6.1 0.00 0.00 0.00 78 1014.7
20260904173406 51 218 1.7 6.1 0.00 0.00 0.00 77 1014.7
20260904172906 51 218 1.7 6.1 0.00 0.00 0.00 77 1014.6
20260904172406 51 208 3.5 7.0 0.00 0.00 0.00 77 1014.6
20260904171906 51 200 3.5 12.2 0.00 0.00 0.00 77 1014.5
20260904171406 51 207 4.3 10.4 0.00 0.00 0.00 77 1014.5
20260904170906 51 193 3.5 10.4 0.00 0.00 0.00 77 1014.4
20260904170406 51 199 4.3 10.4 0.00 0.00 0.00 77 1014.3
20260904165906 51 200 5.2 10.4 0.00 0.00 0.00 78 1014.2
20260904165406 51 216 5.2 10.4 0.00 0.00 0.00 78 1014.2
20260904164406 51 239 2.6 10.4 0.00 0.00 0.00 78 1014.1
20260904163906 51 219 2.6 7.8 0.00 0.00 0.00 77 1014.0
20260904163407 51 216 3.5 10.4 0.00 0.00 0.00 77 1013.8
20260904162406 51 209 3.5 8.7 0.00 0.00 0.00 77 1013.6
20260904161906 52 205 4.3 10.4 0.00 0.00 0.00 76 1013.5
20260904161406 52 223 5.2 12.2 0.00 0.00 0.00 76 1013.4
20260904160906 52 196 4.3 10.4 0.00 0.00 0.00 76 1013.3
20260904160406 52 198 4.3 15.6 0.00 0.00 0.00 76 1013.2
20260904155906 52 219 6.1 13.9 0.00 0.00 0.00 76 1013.1
20260904155406 52 224 5.2 14.8 0.00 0.00 0.00 76 1013.0
20260904154906 52 200 5.2 15.6 0.00 0.00 0.00 77 1013.0
20260904154406 52 204 7.8 17.4 0.00 0.00 0.00 77 1013.0
20260904153906 52 236 2.6 10.4 0.00 0.00 0.00 77 1013.1
20260904153406 52 209 4.3 13.9 0.00 0.00 0.00 77 1013.1
20260904152905 53 230 3.5 11.3 0.00 0.00 0.00 77 1013.0
20260904152406 53 239 5.2 14.8 0.00 0.00 0.00 77 1012.9
20260904151906 53 202 7.0 13.9 0.00 0.00 0.00 77 1012.8
20260904151406 53 206 6.1 13.0 0.00 0.00 0.00 77 1012.8
20260904150906 53 193 7.0 14.8 0.00 0.00 0.00 77 1012.8
20260904150406 53 211 7.8 15.6 0.00 0.00 0.00 77 1012.8
20260904145906 53 217 6.1 17.4 0.00 0.00 0.00 77 1012.8
20260904145406 52 220 6.1 15.6 0.00 0.00 0.00 77 1012.8
20260904144905 53 196 5.2 12.2 0.00 0.00 0.00 76 1012.9
20260904144406 53 198 7.0 18.2 0.00 0.00 0.00 76 1012.9
20260904143906 53 203 6.1 14.8 0.00 0.00 0.00 76 1012.9
20260904143406 53 195 7.0 17.4 0.00 0.00 0.00 76 1012.9
20260904142906 53 218 5.2 12.2 0.00 0.00 0.00 76 1013.0
20260904142406 53 203 6.1 14.8 0.00 0.00 0.00 76 1013.0
20260904141906 54 199 6.1 15.6 0.00 0.00 0.00 76 1012.9
20260904140906 53 211 7.8 18.2 0.00 0.00 0.00 76 1012.8
20260904140406 53 211 6.1 15.6 0.00 0.00 0.00 76 1012.8
20260904135406 53 229 5.2 20.0 0.00 0.00 0.00 76 1012.7
20260904134906 54 206 6.1 18.2 0.00 0.00 0.00 76 1012.8
20260904134406 53 215 7.8 22.6 0.00 0.00 0.00 76 1012.7
20260904133907 53 208 5.2 13.0 0.00 0.00 0.00 75 1012.6
20260904132906 53 216 8.7 19.1 0.00 0.00 0.00 76 1012.3
20260904132407 53 203 7.8 17.4 0.00 0.00 0.00 77 1012.3
20260904131906 53 194 5.2 18.2 0.00 0.00 0.00 77 1012.3
20260904131406 53 215 5.2 22.6 0.00 0.00 0.00 77 1012.3
20260904130906 53 202 8.7 17.4 0.00 0.00 0.00 77 1012.2
20260904130406 53 231 6.1 15.6 0.00 0.00 0.00 76 1012.2
20260904125906 53 202 4.3 17.4 0.00 0.00 0.00 76 1011.9
20260904124906 53 191 7.0 15.6 0.00 0.00 0.00 76 1011.8
20260904124405 53 192 7.8 17.4 0.00 0.00 0.00 77 1011.7
20260904123906 53 216 8.7 21.7 0.00 0.00 0.00 77 1011.6
20260904123406 52 189 6.1 17.4 0.00 0.00 0.00 78 1011.5
20260904121906 52 203 7.8 13.9 0.00 0.00 0.00 79 1011.3
20260904121407 52 288 4.3 14.8 0.00 0.00 0.00 78 1011.3
20260904120906 52 234 6.1 15.6 0.00 0.00 0.00 78 1011.4
20260904115906 52 196 6.1 18.2 0.00 0.00 0.00 78 1011.3
20260904114906 53 240 5.2 17.4 0.00 0.00 0.00 77 1011.1
20260904114408 53 201 8.7 24.3 0.00 0.00 0.00 76 1011.1
20260904113906 53 202 7.8 24.3 0.00 0.00 0.00 76 1011.1
20260904113406 54 217 7.0 18.2 0.00 0.00 0.00 76 1011.1
20260904112907 53 222 7.0 13.9 0.00 0.00 0.00 76 1011.0
20260904112406 53 228 8.7 18.2 0.00 0.00 0.00 76 1010.9
20260904111906 53 199 7.0 18.2 0.00 0.00 0.00 76 1010.8
20260904110906 53 226 6.1 17.4 0.00 0.00 0.00 75 1010.9
20260904110406 53 220 6.1 15.6 0.00 0.00 0.00 75 1011.0
20260904105907 53 216 7.0 17.4 0.00 0.00 0.00 74 1010.9
20260904105407 53 206 6.1 17.4 0.00 0.00 0.00 74 1011.0
20260904104907 53 300 7.8 22.6 0.00 0.00 0.00 74 1010.8
20260904103906 53 216 4.3 11.3 0.00 0.00 0.00 75 1010.7
20260904103406 53 209 6.1 20.9 0.00 0.00 0.00 74 1010.5
20260904102906 53 218 8.7 19.1 0.00 0.00 0.00 75 1010.4
20260904102410 53 259 8.7 20.9 0.00 0.00 0.00 75 1010.2
20260904101906 53 256 7.8 17.4 0.00 0.00 0.00 76 1010.2
20260904100906 53 223 8.7 19.1 0.00 0.00 0.00 75 1010.3
20260904100407 53 225 8.7 24.3 0.00 0.00 0.00 75 1010.3
20260904095907 53 226 6.1 17.4 0.00 0.00 0.00 75 1010.2
20260904094906 53 194 5.2 12.2 0.00 0.00 0.00 74 1010.0
20260904094406 53 222 8.7 18.2 0.00 0.00 0.00 74 1010.0
20260904093906 53 215 7.8 17.4 0.00 0.00 0.00 75 1009.9
20260904093406 53 233 7.0 15.6 0.00 0.00 0.00 74 1009.9
20260904091906 53 264 7.0 18.2 0.00 0.00 0.00 76 1009.7
20260904091406 53 214 9.6 18.2 0.00 0.00 0.00 76 1009.4
20260904090906 53 237 7.8 17.4 0.00 0.00 0.00 76 1009.6
20260904090406 53 244 10.4 20.0 0.00 0.00 0.00 75 1009.6
20260904085906 53 229 6.1 19.1 0.00 0.00 0.00 76 1009.5
20260904085406 53 226 7.8 21.7 0.00 0.00 0.00 75 1009.5
20260904084906 53 228 10.4 21.7 0.00 0.00 0.00 75 1009.3
20260904084406 53 204 6.1 20.9 0.00 0.00 0.00 76 1009.2
20260904083906 53 224 11.3 21.7 0.00 0.00 0.00 75 1009.2
20260904083406 53 206 9.6 20.0 0.00 0.00 0.00 76 1009.1
20260904082907 53 223 8.7 20.0 0.00 0.00 0.00 77 1008.9
20260904081906 53 239 7.8 24.3 0.00 0.00 0.00 79 1008.7
20260904081406 53 200 10.4 20.0 0.00 0.00 0.00 80 1008.5
20260904080906 53 245 7.8 22.6 0.00 0.00 0.00 80 1008.3
20260904080406 53 210 12.2 24.3 0.00 0.00 0.00 81 1007.9
20260904075906 53 214 12.2 26.1 0.00 0.00 0.00 81 1007.8
20260904075406 53 317 10.4 24.3 0.00 0.00 0.00 81 1007.7
20260904074906 52 219 8.7 22.6 0.00 0.00 0.00 82 1007.8
20260904074410 52 201 7.0 20.9 0.00 0.00 0.00 82 1007.7
20260904073406 51 214 7.8 21.7 0.00 0.00 0.00 81 1007.9
20260904072906 51 202 9.6 20.9 0.00 0.00 0.00 81 1007.8
20260904072406 51 206 9.6 22.6 0.00 0.00 0.00 81 1007.6
20260904071906 51 234 9.6 20.0 0.00 0.00 0.00 81 1007.6
20260904065406 50 214 15.6 27.8 0.00 0.00 0.00 84 1007.5
20260904064906 49 211 14.8 31.3 0.00 0.00 0.00 85 1007.3
20260904064406 49 217 13.0 27.8 0.00 0.00 0.00 86 1007.3
20260904063906 49 221 13.9 30.4 0.00 0.00 0.00 86 1007.3
20260904063406 49 248 13.0 22.6 0.00 0.00 0.00 87 1007.1
20260904062906 49 212 11.3 26.9 0.00 0.00 0.00 87 1007.2
20260904062406 49 222 11.3 24.3 0.00 0.00 0.00 86 1007.3
20260904061907 50 225 12.2 27.8 0.00 0.00 0.00 86 1007.6
20260904061406 50 201 10.4 25.2 0.00 0.00 0.00 85 1007.7
20260904060406 52 232 12.2 25.2 0.00 0.00 0.00 82 1007.9
20260904055906 54 283 12.2 21.7 0.00 0.00 0.00 81 1007.6
20260904055405 55 320 13.0 24.3 0.00 0.00 0.00 80 1007.3
20260904054906 55 321 8.7 19.1 0.00 0.00 0.00 81 1007.1
20260904054405 55 319 8.7 22.6 0.00 0.00 0.00 80 1006.9